[[{"header":{"parameterUnit":"m.s-1","parameterCategory":1,"la1":30.2991,"la2":30.254,"lo1":-89.0895,"lo2":-89.0444,"dy":0.0017,"dx":0.0017,"nx":28,"ny":28,"refTime":"2023-04-30T15:00:00:Z","depth":0,"parameterNumber":2,"parameterNumberName":"U-component_of_WINDS"},"data":[0,0,0,0,0,0,0,0,0,0,0,0,0,0,0,0,0,0,0,0,0,0,0,0,0,0,0,0,0,0,0,0,0,0,0,0,0,0,0,0,0,0,0,0,0,0,0,0,0,0,0,0,0,0,0,0,0,0,1.9127,1.9129,0,1.9264,1.9266,1.9267,1.9254,1.9251,1.9249,1.9247,1.9392,1.9398,1.9404,0,0,0,0,0,0,0,0,0,0,0,0,0,1.886,1.8865,1.9127,1.9129,1.9131,1.9264,1.9266,1.9268,1.9254,1.9251,1.9249,1.9246,1.939,1.9397,1.9404,0,0,0,0,0,0,0,0,0,0,0,0,0,1.8985,1.8867,1.9127,1.914,1.9142,1.9264,1.9266,1.9268,1.9254,1.9251,1.9248,1.9245,1.9388,1.9397,1.9405,1.9525,0,0,1.9432,1.9436,0,0,0,0,0,0,0,0,1.8978,1.8994,1.9136,1.9139,1.9142,1.9238,1.9225,1.9354,1.9255,1.9212,1.9247,1.9243,1.9344,1.9356,1.9389,1.9531,1.9538,1.9433,1.9438,1.9442,1.9445,0,0,0,0,0,0,0,1.8969,1.8989,1.9182,1.9138,1.9142,1.9141,1.9155,1.9249,1.9295,1.9216,1.9215,1.9231,1.9345,1.9381,1.9393,1.954,1.9433,1.9441,1.9446,1.945,1.979,1.9794,0,0,0,0,0,0,1.8956,1.8981,1.9177,1.9186,1.905,1.9148,1.9164,1.9211,1.9294,1.9303,1.9234,1.923,1.9367,1.9382,1.9398,1.9545,1.9442,1.945,1.9456,1.9787,1.9791,1.9795,0,0,0,0,0,0,1.8951,1.8974,1.9172,1.9084,1.9108,1.9156,1.9209,1.9215,1.9251,1.9307,1.9316,1.9261,1.9365,1.9385,1.9494,1.955,1.9454,1.9462,1.9782,1.9788,1.9793,1.984,0,0,0,0,0,0,1.8943,1.8972,1.9016,1.9084,1.9113,1.9264,1.9212,1.922,1.9266,1.9262,1.9335,1.9345,1.9364,1.9481,1.9502,1.9561,1.9469,1.9777,1.9785,1.9792,1.9834,1.9847,1.9858,0,0,0,0,0,1.8934,1.9024,1.9018,1.9042,1.9169,1.9267,1.9284,1.9303,1.927,1.9316,1.9353,1.9342,1.954,1.9492,1.9516,1.9578,1.9774,1.9783,1.9791,1.9828,1.9844,1.9857,0,0,0,0,0,0,1.8963,1.9033,1.9028,1.9143,1.9199,1.9264,1.9323,1.9318,1.9386,1.938,1.9403,1.942,1.953,1.9564,1.9509,1.9699,1.9653,1.9667,1.9673,1.9688,1.97,1.9691,1.9477,0,0,0,0,0,1.8982,1.9053,1.9112,1.9208,1.9236,1.9275,1.9318,1.9328,1.9388,1.9412,1.9456,1.9516,1.9592,1.9642,1.9714,1.9838,1.9856,1.9893,1.9905,1.9914,1.9927,1.9998,2.0016,1.9823,1.9823,1.9823,0,0,1.9024,1.9071,1.9115,1.9215,1.926,1.9336,1.9295,1.9376,1.9434,1.9425,1.953,1.9565,1.9634,1.9751,1.9805,1.9783,1.9984,1.9925,1.9932,1.994,2.0009,2.0027,2.0043,1.9829,1.9828,1.9827,0,0,1.9139,1.918,1.9266,1.9312,1.938,1.9405,1.9426,1.9492,1.9515,1.9621,1.9616,1.9686,1.9815,1.9865,1.9908,2.0044,2.0038,2.0067,2.0131,2.02,2.0215,2.0229,2.0281,2.0299,2.0079,2.0079,2.0079,0,1.9182,1.9295,1.9311,1.9394,1.944,1.9434,1.9523,1.9567,1.9656,1.9689,1.9663,1.9827,1.9872,2.0003,2.0036,2.007,2.0097,2.006,2.0211,2.0225,2.0238,2.0288,2.0307,2.0082,2.0082,2.0081,2.0081,0,1.9347,1.9425,1.9487,1.9572,1.9624,1.971,1.9742,1.9793,1.9799,1.9828,1.9938,1.9992,2.0078,2.0109,2.0115,2.0242,2.0227,2.0206,2.016,2.026,2.0307,2.0326,2.0087,2.0086,2.0085,2.0084,0,0,1.9485,1.9578,1.9601,1.9641,1.9716,1.9778,1.9865,1.9947,1.9992,2.0054,2.0129,2.024,2.0221,2.027,2.0282,2.0343,2.0451,2.0315,2.0317,2.0341,2.0598,2.0615,2.0637,2.0447,2.0451,2.0454,2.0593,0,1.9609,1.9761,1.9779,1.9915,1.999,1.9986,2.0062,2.0118,2.0147,2.0217,2.025,2.0329,2.0297,2.0327,2.0387,2.0425,2.0504,2.0415,2.0521,2.0524,2.0506,2.0661,2.0679,2.0809,2.0612,2.0615,2.0617,0,1.9775,1.9841,1.9984,2.0052,2.0084,2.0151,2.023,2.0295,2.0359,2.0377,2.0432,2.0437,2.053,2.0478,2.0608,2.0548,2.0592,2.0618,2.0624,2.0636,2.0579,2.0681,2.085,2.087,2.0646,2.0643,2.0641,0,1.9866,1.999,2.0093,2.0126,2.0206,2.0255,2.0291,2.0351,2.0401,2.047,2.0502,2.0581,2.0626,2.0688,2.0716,2.0675,2.0846,2.0796,2.0866,2.0866,2.0904,2.0902,2.1085,2.0928,2.0927,2.0927,2.0926,0,2.0005,2.0093,2.0134,2.0198,2.0298,2.0319,2.0418,2.0453,2.0508,2.058,2.0581,2.0649,2.068,2.0754,2.0776,2.0883,2.0902,2.0921,2.0927,2.0923,2.0921,2.0954,2.0947,2.0932,2.0931,2.093,2.0929,0,2.0123,2.0154,2.0266,2.0332,2.0351,2.0423,2.0481,2.0544,2.0573,2.0664,2.0687,2.0734,2.0821,2.0854,2.0961,2.0976,2.11,2.1097,2.1078,2.1081,2.115,2.1144,2.1364,2.1395,2.1214,2.1215,2.1217,0,2.0211,2.0279,2.0353,2.0401,2.0439,2.0515,2.0565,2.0589,2.0642,2.0722,2.0776,2.0862,2.0933,2.1073,2.1118,2.1201,2.1202,2.1273,2.1214,2.1209,2.1207,2.1204,2.1213,2.1285,2.1286,2.1288,2.1289,0,2.0366,2.0378,2.0449,2.0527,2.0586,2.0649,2.0709,2.0749,2.0783,2.0842,2.0931,2.0986,2.1095,2.1182,2.1267,2.1307,2.1306,2.1307,2.1328,2.1327,2.1314,2.1325,2.1111,2.1302,2.1301,2.13,2.1299,2.1299,2.0474,2.0536,2.0598,2.0678,2.0726,2.0784,2.0847,2.0884,2.0957,2.1047,2.1057,2.1153,2.1219,2.1333,2.1377,2.1454,2.1436,2.1465,2.1474,2.1481,2.1488,2.1299,2.1469,2.1469,2.1469,2.1468,2.1468,0,2.0632,2.0672,2.0745,2.083,2.0894,2.0884,2.0952,2.1007,2.1091,2.1151,2.1221,2.1324,2.141,2.1461,2.1548,2.16,2.1602,2.1622,2.162,2.1631,2.1498,2.1473,2.162,2.162,2.162,2.162,2.162,2.162,2.0721,2.0826,2.0846,2.0975,2.1015,2.1108,2.1148,2.1203,2.1251,2.1366,2.1437,2.1469,2.1527,2.1618,2.1697,2.171,2.1744,2.1766,2.1779,2.1655,2.1639,2.1624,2.1601,2.1773,2.1773,2.1905,2.1907,2.1907]},{"header":{"parameterUnit":"m.s-1","parameterCategory":1,"la1":30.2991,"la2":30.254,"lo1":-89.0895,"lo2":-89.0444,"dy":0.0017,"dx":0.0017,"nx":28,"ny":28,"refTime":"2023-04-30T15:00:00:Z","depth":0,"parameterNumber":3,"parameterNumberName":"V-component_of_WINDS"},"data":[0,0,0,0,0,0,0,0,0,0,0,0,0,0,0,0,0,0,0,0,0,0,0,0,0,0,0,0,0,0,0,0,0,0,0,0,0,0,0,0,0,0,0,0,0,0,0,0,0,0,0,0,0,0,0,0,0,0,-2.8299,-2.83,0,-2.8364,-2.8365,-2.8366,-2.8392,-2.8392,-2.8392,-2.8392,-2.8454,-2.8456,-2.8457,0,0,0,0,0,0,0,0,0,0,0,0,0,-2.8195,-2.8197,-2.8299,-2.83,-2.8301,-2.8364,-2.8365,-2.8366,-2.8392,-2.8392,-2.8392,-2.8392,-2.8453,-2.8455,-2.8457,0,0,0,0,0,0,0,0,0,0,0,0,0,-2.8248,-2.8198,-2.8299,-2.8322,-2.8324,-2.8364,-2.8365,-2.8366,-2.8392,-2.8392,-2.8392,-2.8391,-2.8452,-2.8455,-2.8458,-2.8478,0,0,-2.8466,-2.8467,0,0,0,0,0,0,0,0,-2.8245,-2.8252,-2.8318,-2.832,-2.8323,-2.837,-2.8351,-2.8404,-2.8392,-2.8366,-2.8392,-2.8391,-2.8426,-2.8431,-2.8443,-2.8481,-2.8484,-2.8466,-2.8468,-2.8469,-2.847,0,0,0,0,0,0,0,-2.8241,-2.8249,-2.8325,-2.8319,-2.8322,-2.8328,-2.8335,-2.8361,-2.8396,-2.8368,-2.8371,-2.8378,-2.8427,-2.844,-2.8445,-2.8485,-2.8466,-2.8468,-2.847,-2.8471,-2.8545,-2.8546,0,0,0,0,0,0,-2.8235,-2.8246,-2.8323,-2.8327,-2.8283,-2.833,-2.8338,-2.8355,-2.8396,-2.8402,-2.8378,-2.8379,-2.8436,-2.8442,-2.8447,-2.8475,-2.8469,-2.8471,-2.8473,-2.8545,-2.8545,-2.8546,0,0,0,0,0,0,-2.8232,-2.8241,-2.832,-2.8287,-2.8298,-2.8332,-2.8351,-2.8357,-2.837,-2.8404,-2.841,-2.8386,-2.8436,-2.8443,-2.8471,-2.8478,-2.8473,-2.8475,-2.8544,-2.8545,-2.8545,-2.8531,0,0,0,0,0,0,-2.8229,-2.824,-2.8249,-2.8287,-2.8299,-2.8344,-2.8351,-2.8358,-2.8375,-2.8377,-2.8412,-2.8418,-2.8436,-2.8467,-2.8474,-2.8481,-2.8477,-2.8544,-2.8545,-2.8545,-2.8531,-2.8531,-2.8531,0,0,0,0,0,-2.8225,-2.8241,-2.8249,-2.8258,-2.8311,-2.8344,-2.8351,-2.8374,-2.8375,-2.8384,-2.8406,-2.8416,-2.8476,-2.847,-2.8478,-2.8486,-2.8544,-2.8544,-2.8545,-2.8531,-2.8531,-2.8531,0,0,0,0,0,0,-2.82,-2.8246,-2.8256,-2.8284,-2.8311,-2.8349,-2.836,-2.8373,-2.8398,-2.8398,-2.8424,-2.8432,-2.8458,-2.8475,-2.8467,-2.8509,-2.8511,-2.8513,-2.8497,-2.8497,-2.8497,-2.8492,-2.8479,0,0,0,0,0,-2.8198,-2.8222,-2.8261,-2.8282,-2.8295,-2.8326,-2.8341,-2.8356,-2.8384,-2.8394,-2.8418,-2.8443,-2.8468,-2.8484,-2.8508,-2.8534,-2.8542,-2.8543,-2.8543,-2.8543,-2.8545,-2.8561,-2.8562,-2.8548,-2.8548,-2.8548,0,0,-2.8194,-2.8222,-2.8235,-2.8278,-2.83,-2.8324,-2.8334,-2.8359,-2.8377,-2.8398,-2.8426,-2.8445,-2.8475,-2.8502,-2.8515,-2.8517,-2.8551,-2.8544,-2.8544,-2.8546,-2.8562,-2.8563,-2.8564,-2.8549,-2.8549,-2.8549,0,0,-2.8198,-2.8222,-2.8243,-2.8266,-2.83,-2.8321,-2.8326,-2.8363,-2.8376,-2.8406,-2.8423,-2.8444,-2.8485,-2.8507,-2.8523,-2.8538,-2.8548,-2.8545,-2.8544,-2.856,-2.8561,-2.8562,-2.8568,-2.857,-2.8546,-2.8546,-2.8546,0,-2.8188,-2.8226,-2.8252,-2.8277,-2.8295,-2.8318,-2.8339,-2.8359,-2.8399,-2.8411,-2.8413,-2.8467,-2.8488,-2.8522,-2.8526,-2.8538,-2.8544,-2.8541,-2.8559,-2.856,-2.8562,-2.8568,-2.857,-2.8546,-2.8546,-2.8546,-2.8546,0,-2.8212,-2.8238,-2.8251,-2.8291,-2.8311,-2.8334,-2.8363,-2.838,-2.8395,-2.8415,-2.8445,-2.8472,-2.8503,-2.8512,-2.8525,-2.8548,-2.8548,-2.8554,-2.8556,-2.8562,-2.8568,-2.8571,-2.8545,-2.8545,-2.8545,-2.8545,0,0,-2.8201,-2.8257,-2.8262,-2.8281,-2.8321,-2.8342,-2.8366,-2.8398,-2.8412,-2.8439,-2.846,-2.8496,-2.8503,-2.8521,-2.8537,-2.855,-2.8562,-2.8555,-2.8556,-2.8556,-2.8589,-2.8585,-2.8587,-2.857,-2.857,-2.8571,-2.8587,0,-2.8211,-2.8257,-2.8282,-2.8317,-2.8342,-2.8364,-2.8385,-2.8412,-2.8432,-2.8455,-2.8477,-2.8502,-2.8509,-2.852,-2.8535,-2.8557,-2.8569,-2.8557,-2.8589,-2.859,-2.8581,-2.859,-2.8585,-2.8599,-2.859,-2.859,-2.859,0,-2.8228,-2.8258,-2.8296,-2.8335,-2.8347,-2.8365,-2.8398,-2.842,-2.8451,-2.8465,-2.8487,-2.8503,-2.8529,-2.853,-2.8566,-2.8557,-2.8572,-2.8585,-2.8586,-2.859,-2.859,-2.8594,-2.8604,-2.8606,-2.8594,-2.8594,-2.8594,0,-2.8217,-2.8266,-2.8296,-2.8311,-2.8358,-2.8371,-2.839,-2.8421,-2.844,-2.8468,-2.848,-2.851,-2.8527,-2.8549,-2.8573,-2.8572,-2.8608,-2.861,-2.8619,-2.8619,-2.8625,-2.8625,-2.8638,-2.8635,-2.8635,-2.8635,-2.8635,0,-2.8226,-2.8248,-2.8292,-2.8309,-2.8336,-2.8364,-2.8389,-2.841,-2.8438,-2.8461,-2.8481,-2.8501,-2.8532,-2.8556,-2.8575,-2.8603,-2.861,-2.8621,-2.8626,-2.862,-2.8618,-2.8629,-2.8629,-2.8635,-2.8635,-2.8635,-2.8635,0,-2.8218,-2.8247,-2.8281,-2.8324,-2.8335,-2.8352,-2.8388,-2.8406,-2.8428,-2.8456,-2.8465,-2.8498,-2.8528,-2.8555,-2.8593,-2.8606,-2.8634,-2.864,-2.8624,-2.8627,-2.8635,-2.8634,-2.8656,-2.866,-2.8654,-2.8654,-2.8654,0,-2.8221,-2.824,-2.8285,-2.8302,-2.8322,-2.835,-2.837,-2.8399,-2.8418,-2.8457,-2.847,-2.8502,-2.8528,-2.8574,-2.8602,-2.8632,-2.8639,-2.8644,-2.8643,-2.8636,-2.8639,-2.8638,-2.864,-2.8644,-2.8644,-2.8644,-2.8644,0,-2.8225,-2.8239,-2.8268,-2.8302,-2.8326,-2.8353,-2.8382,-2.8394,-2.8429,-2.845,-2.8482,-2.8503,-2.8544,-2.8574,-2.8608,-2.8627,-2.8641,-2.8644,-2.8648,-2.8641,-2.8632,-2.8638,-2.8624,-2.8643,-2.8643,-2.8643,-2.8643,-2.8643,-2.8223,-2.8241,-2.8276,-2.8308,-2.8333,-2.8359,-2.8379,-2.8405,-2.8432,-2.8469,-2.8485,-2.8517,-2.8549,-2.8595,-2.8615,-2.864,-2.8643,-2.8648,-2.8649,-2.865,-2.865,-2.8628,-2.8646,-2.8646,-2.8646,-2.8646,-2.8646,0,-2.8228,-2.8253,-2.8281,-2.8322,-2.8347,-2.836,-2.8393,-2.8412,-2.8441,-2.847,-2.8497,-2.8534,-2.8565,-2.8596,-2.8628,-2.8642,-2.8649,-2.865,-2.8649,-2.8653,-2.8645,-2.8639,-2.8643,-2.8643,-2.8643,-2.8643,-2.8643,-2.8643,-2.8234,-2.8265,-2.8284,-2.8329,-2.8353,-2.8386,-2.8404,-2.8428,-2.8452,-2.8493,-2.852,-2.854,-2.8571,-2.8606,-2.8634,-2.8643,-2.8654,-2.8652,-2.8662,-2.8654,-2.8654,-2.8654,-2.8648,-2.8654,-2.8654,-2.8668,-2.8669,-2.8669]}]]